| time (UTC) | temp F | wind direction | speed MPH | gust MPH | rain 1hr in | rain 24hr in | rain mn in | humidity % | barometer mb |
| 20260505230528 | 64 | 190 | 2.0 | 5.0 | 0.00 | 0.00 | 0.00 | 63 | 1025.6 |
| 20260505225527 | 64 | 199 | 2.0 | 5.0 | 0.00 | 0.00 | 0.00 | 62 | 1025.9 |
| 20260505224528 | 65 | 202 | 0.0 | 4.0 | 0.00 | 0.00 | 0.00 | 62 | 1025.7 |
| 20260505223530 | 65 | 194 | 4.0 | 7.0 | 0.00 | 0.00 | 0.00 | 60 | 1025.8 |
| 20260505221626 | 67 | 182 | 2.0 | 8.0 | 0.00 | 0.00 | 0.00 | 60 | 1025.6 |
| 20260505220628 | 67 | 211 | 3.0 | 8.0 | 0.00 | 0.00 | 0.00 | 60 | 1025.4 |
| 20260505214729 | 67 | 185 | 1.0 | 3.0 | 0.00 | 0.00 | 0.00 | 59 | 1025.0 |
| 20260505211728 | 68 | 145 | 1.0 | 3.0 | 0.00 | 0.00 | 0.00 | 58 | 1025.0 |
| 20260505210730 | 68 | 203 | 1.0 | 4.0 | 0.00 | 0.00 | 0.00 | 58 | 1025.0 |
| 20260505210627 | 68 | 187 | 1.0 | 3.0 | 0.00 | 0.00 | 0.00 | 58 | 1024.9 |
| 20260505203627 | 68 | 225 | 0.0 | 1.0 | 0.00 | 0.00 | 0.00 | 58 | 1025.1 |
| 20260505202627 | 69 | 154 | 1.0 | 4.0 | 0.00 | 0.00 | 0.00 | 57 | 1025.2 |
| 20260505201629 | 70 | 181 | 1.0 | 4.0 | 0.00 | 0.00 | 0.00 | 56 | 1025.2 |
| 20260505200629 | 71 | 202 | 1.0 | 3.0 | 0.00 | 0.00 | 0.00 | 54 | 1025.3 |
| 20260505195628 | 73 | 180 | 0.0 | 1.0 | 0.00 | 0.00 | 0.00 | 52 | 1025.3 |
| 20260505194627 | 74 | 180 | 0.0 | 2.0 | 0.00 | 0.00 | 0.00 | 51 | 1025.1 |
| 20260505193626 | 74 | 180 | 0.0 | 2.0 | 0.00 | 0.00 | 0.00 | 51 | 1025.3 |
| 20260505191628 | 74 | 180 | 0.0 | 2.0 | 0.00 | 0.00 | 0.00 | 51 | 1025.7 |
| 20260505190629 | 74 | 180 | 0.0 | 2.0 | 0.00 | 0.00 | 0.00 | 52 | 1025.9 |
| 20260505185626 | 74 | 180 | 0.0 | 2.0 | 0.00 | 0.00 | 0.00 | 52 | 1025.9 |
| 20260505184628 | 74 | 270 | 0.0 | 0.0 | 0.00 | 0.00 | 0.00 | 51 | 1026.1 |
| 20260505183628 | 75 | 270 | 0.0 | 0.0 | 0.00 | 0.00 | 0.00 | 51 | 1026.2 |
| 20260505182627 | 74 | 270 | 0.0 | 0.0 | 0.00 | 0.00 | 0.00 | 51 | 1026.2 |
| 20260505175727 | 74 | 270 | 0.0 | 1.0 | 0.00 | 0.00 | 0.00 | 52 | 1026.5 |
| 20260505174729 | 74 | 180 | 1.0 | 4.0 | 0.00 | 0.00 | 0.00 | 52 | 1026.5 |
| 20260505173827 | 74 | 180 | 2.0 | 4.0 | 0.00 | 0.00 | 0.00 | 52 | 1026.5 |
| 20260505172927 | 75 | 180 | 1.0 | 4.0 | 0.00 | 0.00 | 0.00 | 52 | 1026.5 |
| 20260505171929 | 75 | 180 | 1.0 | 3.0 | 0.00 | 0.00 | 0.00 | 51 | 1026.7 |
| 20260505171028 | 75 | 180 | 1.0 | 4.0 | 0.00 | 0.00 | 0.00 | 51 | 1026.7 |
| 20260505170126 | 75 | 180 | 1.0 | 3.0 | 0.00 | 0.00 | 0.00 | 51 | 1026.7 |
| 20260505164127 | 76 | 180 | 1.0 | 3.0 | 0.00 | 0.00 | 0.00 | 51 | 1026.8 |
| 20260505163129 | 76 | 180 | 0.0 | 2.0 | 0.00 | 0.00 | 0.00 | 50 | 1026.9 |
| 20260505161127 | 76 | 157 | 0.0 | 1.0 | 0.00 | 0.00 | 0.00 | 51 | 1027.2 |
| 20260505160128 | 76 | 157 | 1.0 | 2.0 | 0.00 | 0.00 | 0.00 | 52 | 1027.0 |
| 20260505153229 | 74 | 157 | 0.0 | 1.0 | 0.00 | 0.00 | 0.00 | 53 | 1027.4 |
| 20260505152327 | 74 | 157 | 0.0 | 3.0 | 0.00 | 0.00 | 0.00 | 53 | 1027.6 |
| 20260505151426 | 74 | 157 | 0.0 | 3.0 | 0.00 | 0.00 | 0.00 | 54 | 1027.7 |
| 20260505150427 | 73 | 157 | 0.0 | 1.0 | 0.00 | 0.00 | 0.00 | 55 | 1027.8 |
| 20260505125026 | 63 | 202 | 0.0 | 1.0 | 0.00 | 0.00 | 0.00 | 71 | 1027.5 |
| 20260505123127 | 61 | 225 | 0.0 | 0.0 | 0.00 | 0.00 | 0.00 | 74 | 1027.7 |
| 20260505120126 | 60 | 180 | 0.0 | 0.0 | 0.00 | 0.00 | 0.00 | 81 | 1027.6 |
| 20260505115129 | 60 | 135 | 0.0 | 0.0 | 0.00 | 0.00 | 0.00 | 83 | 1027.8 |
| 20260505114127 | 58 | 112 | 0.0 | 0.0 | 0.00 | 0.00 | 0.00 | 85 | 1027.9 |
| 20260505113127 | 57 | 112 | 0.0 | 0.0 | 0.00 | 0.00 | 0.00 | 86 | 1028.0 |
| 20260505112129 | 56 | 202 | 0.0 | 0.0 | 0.00 | 0.00 | 0.00 | 87 | 1027.9 |
| 20260505111128 | 56 | 180 | 0.0 | 0.0 | 0.00 | 0.00 | 0.00 | 87 | 1027.7 |
| 20260505101227 | 53 | 247 | 0.0 | 0.0 | 0.00 | 0.00 | 0.00 | 88 | 1026.9 |
| 20260505100228 | 53 | 247 | 0.0 | 0.0 | 0.00 | 0.00 | 0.00 | 88 | 1026.6 |
| 20260505095327 | 53 | 247 | 0.0 | 0.0 | 0.00 | 0.00 | 0.00 | 88 | 1026.6 |
| 20260505094329 | 53 | 197 | 1.0 | 2.0 | 0.00 | 0.00 | 0.00 | 88 | 1026.6 |
| 20260505093428 | 53 | 202 | 0.0 | 0.0 | 0.00 | 0.00 | 0.00 | 87 | 1026.8 |
| 20260505092526 | 53 | 202 | 0.0 | 0.0 | 0.00 | 0.00 | 0.00 | 87 | 1026.8 |
| 20260505090527 | 54 | 202 | 0.0 | 0.0 | 0.00 | 0.00 | 0.00 | 87 | 1026.7 |
| 20260505085527 | 54 | 202 | 0.0 | 1.0 | 0.00 | 0.00 | 0.00 | 87 | 1026.7 |
| 20260505084528 | 54 | 179 | 0.0 | 2.0 | 0.00 | 0.00 | 0.00 | 87 | 1026.8 |
| 20260505083528 | 53 | 268 | 0.0 | 1.0 | 0.00 | 0.00 | 0.00 | 87 | 1026.8 |
| 20260505082527 | 53 | 180 | 0.0 | 1.0 | 0.00 | 0.00 | 0.00 | 86 | 1026.7 |
| 20260505075528 | 53 | 197 | 0.0 | 1.0 | 0.00 | 0.00 | 0.00 | 86 | 1026.8 |
| 20260505071627 | 53 | 202 | 1.0 | 2.0 | 0.00 | 0.00 | 0.00 | 85 | 1026.8 |
| 20260505070627 | 54 | 166 | 0.0 | 0.0 | 0.00 | 0.00 | 0.00 | 85 | 1026.8 |
| 20260505065627 | 54 | 202 | 1.0 | 2.0 | 0.00 | 0.00 | 0.00 | 85 | 1026.8 |
| 20260505064627 | 54 | 202 | 2.0 | 4.0 | 0.00 | 0.00 | 0.00 | 85 | 1026.8 |
| 20260505063629 | 54 | 180 | 0.0 | 1.0 | 0.00 | 0.00 | 0.00 | 84 | 1026.8 |
| 20260505061726 | 54 | 202 | 0.0 | 2.0 | 0.00 | 0.00 | 0.00 | 84 | 1027.0 |
| 20260505060727 | 54 | 144 | 0.0 | 1.0 | 0.00 | 0.00 | 0.00 | 84 | 1027.2 |
| 20260505055826 | 54 | 184 | 0.0 | 2.0 | 0.00 | 0.00 | 0.00 | 84 | 1027.2 |
| 20260505054727 | 54 | 142 | 0.0 | 3.0 | 0.00 | 0.00 | 0.00 | 83 | 1027.2 |
| 20260505053728 | 54 | 180 | 0.0 | 1.0 | 0.00 | 0.00 | 0.00 | 83 | 1027.4 |
| 20260505052728 | 54 | 180 | 0.0 | 2.0 | 0.00 | 0.00 | 0.00 | 82 | 1027.3 |
| 20260505051728 | 54 | 285 | 0.0 | 0.0 | 0.00 | 0.00 | 0.00 | 82 | 1027.4 |
| 20260505050726 | 54 | 202 | 0.0 | 1.0 | 0.00 | 0.00 | 0.00 | 81 | 1027.4 |
| 20260505040928 | 54 | 157 | 0.0 | 0.0 | 0.00 | 0.00 | 0.00 | 78 | 1027.7 |
| 20260505040018 | 54 | 202 | 0.0 | 1.0 | 0.00 | 0.00 | 0.00 | 77 | 1027.6 |
| 20260505035014 | 54 | 135 | 0.0 | 0.0 | 0.00 | 0.00 | 0.00 | 77 | 1027.6 |
| 20260505034015 | 54 | 157 | 0.0 | 0.0 | 0.00 | 0.00 | 0.00 | 77 | 1027.6 |
| 20260505033013 | 54 | 157 | 0.0 | 0.0 | 0.00 | 0.00 | 0.00 | 75 | 1027.7 |
| 20260505032013 | 55 | 157 | 0.0 | 0.0 | 0.00 | 0.00 | 0.00 | 75 | 1027.6 |
| 20260505031012 | 55 | 182 | 0.0 | 1.0 | 0.00 | 0.00 | 0.00 | 76 | 1027.7 |
| 20260505030012 | 55 | 157 | 0.0 | 2.0 | 0.00 | 0.00 | 0.00 | 75 | 1027.7 |
| 20260505024112 | 55 | 202 | 0.0 | 1.0 | 0.00 | 0.00 | 0.00 | 75 | 1027.7 |
| 20260505022214 | 55 | 202 | 0.0 | 1.0 | 0.00 | 0.00 | 0.00 | 74 | 1027.9 |
| 20260505021213 | 55 | 202 | 0.0 | 1.0 | 0.00 | 0.00 | 0.00 | 73 | 1027.9 |
| 20260505020213 | 55 | 203 | 0.0 | 1.0 | 0.00 | 0.00 | 0.00 | 74 | 1027.9 |
| 20260505015311 | 55 | 247 | 0.0 | 0.0 | 0.00 | 0.00 | 0.00 | 74 | 1027.8 |
| 20260505013314 | 55 | 225 | 0.0 | 1.0 | 0.00 | 0.00 | 0.00 | 72 | 1027.9 |
| 20260505012315 | 55 | 200 | 1.0 | 2.0 | 0.00 | 0.00 | 0.00 | 72 | 1027.7 |
| 20260505011312 | 56 | 202 | 0.0 | 1.0 | 0.00 | 0.00 | 0.00 | 72 | 1027.5 |
| 20260505010312 | 56 | 168 | 0.0 | 3.0 | 0.00 | 0.00 | 0.00 | 71 | 1027.4 |
| 20260505005314 | 56 | 120 | 0.0 | 1.0 | 0.00 | 0.00 | 0.00 | 70 | 1027.3 |
| 20260505004412 | 56 | 225 | 0.0 | 2.0 | 0.00 | 0.00 | 0.00 | 70 | 1027.1 |
| 20260505003413 | 56 | 215 | 0.0 | 3.0 | 0.00 | 0.00 | 0.00 | 70 | 1027.0 |
| 20260505002414 | 56 | 247 | 0.0 | 1.0 | 0.00 | 0.00 | 0.00 | 71 | 1027.0 |
| 20260505001511 | 56 | 202 | 0.0 | 1.0 | 0.00 | 0.00 | 0.00 | 72 | 1026.9 |
| 20260505000514 | 56 | 202 | 0.0 | 2.0 | 0.00 | 0.00 | 0.00 | 71 | 1026.8 |
| 20260504235513 | 56 | 202 | 1.0 | 2.0 | 0.00 | 0.00 | 0.00 | 70 | 1026.6 |
| 20260504233512 | 57 | 167 | 1.0 | 4.0 | 0.00 | 0.00 | 0.00 | 68 | 1026.6 |
| 20260504232514 | 57 | 189 | 1.0 | 3.0 | 0.00 | 0.00 | 0.00 | 67 | 1026.6 |
| 20260504231513 | 58 | 214 | 0.0 | 2.0 | 0.00 | 0.00 | 0.00 | 66 | 1026.5 |